Location: Lane
(33.5226°N, 79.8788°W)
Time: 18:40:59
(UTC+00:00)

Courier 1B Rocket - Pass Details

Date: 06 October 2022
Orbit: 920 x 1202 km, 28.3° (Epoch: 01 December)

Event Time Altitude Azimuth Distance (km) Brightness Sun altitude
Rises 02:22:46 0° 268° (W) 3,704 8.7 -42.3°
Reaches altitude 10° 02:25:37 10° 263° (W) 2,715 7.8 -42.8°
Enters shadow 02:27:05 17° 257° (WSW) 2,229 7.2 -43.1°
Maximum altitude 02:31:46 45° 192° (SSW) 1,253 - -44.0°
Drops below altitude 10° 02:37:40 10° 121° (ESE) 2,607 - -45.0°
Sets 02:40:20 0° 115° (ESE) 3,543 - -45.5°
